Weather History for Mackinac Island, MI

Change the Weather History Date:

Thursday, May 30, 2013

  Actual Average Record
Temperature  
Mean Temperature 63 °F -  
Max Temperature 78 °F 58 °F 80 °F (2006)
Min Temperature 48 °F 42 °F 35 °F (1998)
Degree Days  
Heating Degree Days 2    
Growing Degree Days 13 (Base 50)    
Moisture  
Dew Point 56 °F    
Average Humidity 83    
Maximum Humidity 97    
Minimum Humidity 61    
Precipitation  
Precipitation 0.00 in - - ()
Sea Level Pressure  
Sea Level Pressure 29.91 in    
Wind  
Wind Speed 7 mph (ESE)    
Max Wind Speed 14 mph    
Max Gust Speed 24 mph    
Visibility 8 miles    
Events      
Averages and records for this station are not official NWS values.
T = Trace of Precipitation, MM = Missing Value Source: NWS Daily Summary

Daily Weather History Graph

Daily Weather History Graph

Search for Another Location

Airport:

Trip Planner

Search our weather history database for the weather conditions in past years. The results will help you decide how hot, cold, wet, or windy it might be!

Date:

Astronomy

May. 30, 2013 Rise Set
Actual Time 5:52 AM EDT 9:19 PM EDT
Civil Twilight 5:15 AM EDT 9:57 PM EDT
Nautical Twilight 4:27 AM EDT 10:45 PM EDT
Astronomical Twilight 3:24 AM EDT 11:49 PM EDT
Moon 1:08 AM EDT (5/30) 12:13 PM EDT (5/30)
Length of Visible Light 16h 41m
Length of Day
15h 26m
Waning Gibbous, 62% of the Moon is Illuminated
May 30
Waning Gibbous
May 31
Last Quarter
Jun 8
New
Jun 16
First Quarter
Jun 23
Full

Hourly Weather History & Observations

Time (EDT) Temp. Dew Point Humidity Pressure Visibility Wind Dir Wind Speed Gust Speed Precip Events Conditions
12:14 AM 57.0 °F 55.6 °F 95% 29.92 in 4.0 mi East 9.2 mph - N/A   Scattered Clouds
12:34 AM 56.3 °F 55.0 °F 96% 29.92 in 4.0 mi ESE 9.2 mph - N/A   Mostly Cloudy
12:55 AM 56.8 °F 55.6 °F 96% 29.93 in 10.0 mi ESE 10.4 mph 17.3 mph N/A   Scattered Clouds
1:14 AM 57.2 °F 55.4 °F 94% 29.94 in 10.0 mi ESE 8.1 mph - N/A   Clear
1:34 AM 58.1 °F 55.8 °F 92% 29.94 in 10.0 mi SE 6.9 mph - N/A   Clear
1:55 AM 56.8 °F 54.7 °F 92% 29.94 in 10.0 mi ESE 4.6 mph - N/A   Clear
2:14 AM 54.5 °F 52.9 °F 94% 29.93 in 7.0 mi ESE 8.1 mph - N/A   Clear
2:34 AM 53.2 °F 51.8 °F 95% 29.94 in 5.0 mi ESE 6.9 mph - N/A   Clear
2:54 AM 51.6 °F 50.4 °F 95% 29.93 in 7.0 mi ESE 8.1 mph - N/A   Clear
3:14 AM 52.5 °F 51.1 °F 95% 29.93 in 7.0 mi ESE 10.4 mph - N/A   Clear
3:34 AM 53.4 °F 52.0 °F 95% 29.93 in 7.0 mi SE 8.1 mph - N/A   Clear
3:54 AM 52.0 °F 50.9 °F 96% 29.94 in 4.0 mi WNW 3.5 mph - N/A   Mostly Cloudy
4:14 AM 51.4 °F 50.2 °F 95% 29.93 in 3.0 mi ESE 6.9 mph - N/A   Mostly Cloudy
4:35 AM 52.0 °F 50.9 °F 96% 29.93 in 3.0 mi East 4.6 mph - N/A   Mostly Cloudy
4:54 AM 50.9 °F 49.5 °F 95% 29.92 in 4.0 mi ESE 6.9 mph - N/A   Mostly Cloudy
5:14 AM 50.0 °F 48.7 °F 95% 29.93 in 4.0 mi Calm Calm - N/A   Mostly Cloudy
5:35 AM 49.1 °F 47.7 °F 95% 29.93 in 4.0 mi ESE 9.2 mph - N/A   Overcast
5:54 AM 48.6 °F 47.5 °F 96% 29.93 in 2.0 mi ESE 5.8 mph - N/A   Overcast
6:14 AM 49.1 °F 48.2 °F 97% 29.93 in 2.5 mi SE 5.8 mph - N/A   Overcast
6:35 AM 50.0 °F 48.9 °F 96% 29.94 in 4.0 mi ESE 5.8 mph - N/A   Scattered Clouds
6:54 AM 50.2 °F 49.1 °F 96% 29.94 in 4.0 mi SE 5.8 mph - N/A   Clear
7:14 AM 51.3 °F 50.2 °F 96% 29.94 in 5.0 mi ESE 5.8 mph - N/A   Clear
7:34 AM 53.6 °F 52.7 °F 97% 29.94 in 5.0 mi ESE 5.8 mph - N/A   Clear
7:54 AM 56.5 °F 55.6 °F 97% 29.93 in 7.0 mi ESE 8.1 mph - N/A   Clear
8:15 AM 55.0 °F 53.2 °F 94% 29.93 in 7.0 mi ESE 6.9 mph - N/A   Scattered Clouds
8:34 AM 53.4 °F 51.3 °F 92% 29.93 in 2.5 mi East 3.5 mph - N/A   Mostly Cloudy
8:54 AM 53.2 °F 50.9 °F 92% 29.93 in 7.0 mi Calm Calm - N/A   Scattered Clouds
9:15 AM 54.0 °F 51.4 °F 91% 29.94 in 10.0 mi Calm Calm - N/A   Clear
9:34 AM 54.7 °F 50.9 °F 87% 29.93 in 10.0 mi ENE 4.6 mph - N/A   Clear
9:54 AM 54.0 °F 50.0 °F 86% 29.93 in 10.0 mi ESE 3.5 mph - N/A   Mostly Cloudy
10:15 AM 55.4 °F 50.2 °F 83% 29.93 in 10.0 mi Calm Calm - N/A   Scattered Clouds
10:34 AM 55.9 °F 49.8 °F 80% 29.93 in 10.0 mi East 3.5 mph - N/A   Clear
10:54 AM 54.3 °F 48.6 °F 81% 29.94 in 10.0 mi ENE 4.6 mph - N/A   Clear
11:15 AM 55.6 °F 49.6 °F 80% 29.94 in 10.0 mi NE 6.9 mph - N/A   Clear
11:34 AM 55.2 °F 49.3 °F 80% 29.94 in 10.0 mi NE 6.9 mph - N/A   Clear
11:54 AM 56.1 °F 49.8 °F 79% 29.94 in 10.0 mi Calm Calm - N/A   Clear
12:15 PM 56.3 °F 49.8 °F 79% 29.94 in 10.0 mi ENE 3.5 mph - N/A   Scattered Clouds
12:34 PM 57.6 °F 50.9 °F 78% 29.94 in 10.0 mi Calm Calm - N/A   Scattered Clouds
12:54 PM 58.6 °F 51.1 °F 76% 29.93 in 10.0 mi NE 5.8 mph - N/A   Scattered Clouds
1:15 PM 56.8 °F 51.6 °F 83% 29.93 in 10.0 mi East 3.5 mph - N/A   Scattered Clouds
1:34 PM 64.2 °F 55.9 °F 74% 29.93 in 10.0 mi ENE 3.5 mph - N/A   Scattered Clouds
1:54 PM 64.6 °F 55.6 °F 73% 29.92 in 10.0 mi ENE 4.6 mph - N/A   Mostly Cloudy
2:15 PM 64.8 °F 57.0 °F 76% 29.91 in 10.0 mi ENE 3.5 mph - N/A   Scattered Clouds
2:34 PM 66.2 °F 57.9 °F 75% 29.91 in 10.0 mi East 3.5 mph - N/A   Clear
2:54 PM 67.5 °F 59.5 °F 76% 29.90 in 10.0 mi East 3.5 mph - N/A   Scattered Clouds
3:15 PM 67.6 °F 60.4 °F 78% 29.90 in 10.0 mi East 4.6 mph - N/A   Scattered Clouds
3:34 PM 69.6 °F 61.5 °F 75% 29.90 in 10.0 mi Calm Calm - N/A   Scattered Clouds
3:54 PM 70.3 °F 62.2 °F 75% 29.89 in 10.0 mi East 4.6 mph - N/A   Clear
4:15 PM 70.9 °F 63.0 °F 76% 29.88 in 10.0 mi East 10.4 mph - N/A   Clear
4:34 PM 72.1 °F 63.9 °F 75% 29.88 in 10.0 mi East 9.2 mph - N/A   Clear
4:54 PM 75.6 °F 64.4 °F 68% 29.87 in 10.0 mi ESE 6.9 mph - N/A   Clear
5:14 PM 74.8 °F 62.6 °F 66% 29.88 in 10.0 mi ESE 8.1 mph 16.1 mph N/A   Scattered Clouds
5:34 PM 73.0 °F 58.6 °F 61% 29.90 in 10.0 mi SSE 13.8 mph 24.2 mph N/A   Mostly Cloudy
5:54 PM 73.9 °F 63.1 °F 69% 29.87 in 10.0 mi SE 10.4 mph 17.3 mph N/A   Scattered Clouds
6:14 PM 77.0 °F 63.3 °F 63% 29.86 in 10.0 mi SE 9.2 mph - N/A   Clear
6:34 PM 78.1 °F 64.2 °F 62% 29.86 in 10.0 mi SE 4.6 mph - N/A   Scattered Clouds
6:54 PM 77.0 °F 64.8 °F 66% 29.86 in 10.0 mi SE 5.8 mph - N/A   Clear
7:14 PM 76.1 °F 65.3 °F 69% 29.86 in 10.0 mi SSE 6.9 mph - N/A   Clear
7:34 PM 75.6 °F 64.9 °F 69% 29.86 in 10.0 mi SSE 4.6 mph - N/A   Clear
7:54 PM 75.2 °F 66.2 °F 73% 29.86 in 10.0 mi SE 4.6 mph - N/A   Clear
8:14 PM 75.4 °F 67.1 °F 75% 29.86 in 10.0 mi Calm Calm - N/A   Clear
8:34 PM 75.2 °F 67.6 °F 77% 29.86 in 10.0 mi SSE 5.8 mph - N/A   Clear
8:54 PM 73.9 °F 65.7 °F 75% 29.86 in 10.0 mi SSE 6.9 mph - N/A   Clear
9:14 PM 72.5 °F 62.8 °F 71% 29.86 in 10.0 mi SSE 8.1 mph - N/A   Clear
9:34 PM 72.9 °F 63.5 °F 72% 29.87 in 10.0 mi South 6.9 mph - N/A   Clear
9:55 PM 73.4 °F 64.4 °F 73% 29.87 in 10.0 mi South 9.2 mph - N/A   Clear
10:14 PM 73.4 °F 64.6 °F 74% 29.88 in 10.0 mi South 6.9 mph - N/A   Clear
10:34 PM 73.2 °F 65.3 °F 76% 29.87 in 10.0 mi South 6.9 mph - N/A   Clear
10:55 PM 72.5 °F 66.0 °F 80% 29.87 in 10.0 mi SSE 9.2 mph - N/A   Clear
11:14 PM 72.9 °F 66.2 °F 80% 29.88 in 10.0 mi SSE 10.4 mph - N/A   Clear
11:34 PM 72.3 °F 65.8 °F 80% 29.86 in 10.0 mi South 6.9 mph - N/A   Clear
11:54 PM 71.6 °F 65.7 °F 81% 29.86 in 10.0 mi South 9.2 mph - N/A   Clear